N9EA Weather Reports


time (UTC)temp
F
wind
direction
speed
knots
gust
knots
rain 1hr
in
rain 24hr
in
rain mn
in
humidity
%
barometer
mb
20260906150613 75 313 0.0 0.0 0.00 0.00 0.00 76 1018.6
20260906150109 75 316 0.0 0.0 0.00 0.00 0.00 76 1018.5
20260906145607 75 313 0.0 0.0 0.00 0.00 0.00 77 1018.5
20260906145102 74 315 0.0 0.0 0.00 0.00 0.00 79 1018.5
20260906144556 73 314 0.0 0.0 0.00 0.00 0.00 80 1018.7
20260906144052 72 313 0.0 0.0 0.00 0.00 0.00 80 1018.5
20260906143546 72 315 0.0 0.0 0.00 0.00 0.00 81 1018.6
20260906143038 71 313 0.0 0.0 0.00 0.00 0.00 82 1018.3
20260906142537 71 317 0.0 0.0 0.00 0.00 0.00 82 1018.4
20260906142033 71 313 0.0 0.0 0.00 0.00 0.00 82 1018.4
20260906141531 71 310 0.0 0.0 0.00 0.00 0.00 82 1018.2
20260906141027 71 305 0.0 0.0 0.00 0.00 0.00 83 1018.3
20260906140526 71 310 0.0 0.0 0.00 0.00 0.00 83 1018.2
20260906140025 71 313 0.0 0.0 0.00 0.00 0.00 83 1018.2
20260906135522 70 306 0.0 0.0 0.00 0.00 0.00 84 1018.4
20260906135019 70 318 0.0 0.0 0.00 0.00 0.00 84 1018.2
20260906134514 70 310 0.0 0.0 0.00 0.00 0.00 84 1018.2
20260906134014 70 311 0.0 0.0 0.00 0.00 0.00 84 1018.3
20260906133510 70 305 0.0 0.0 0.00 0.00 0.00 85 1018.1
20260906133005 70 306 0.0 0.0 0.00 0.00 0.00 85 1018.1
20260906132500 69 319 0.0 0.0 0.00 0.00 0.00 85 1018.0
20260906131955 69 317 0.0 0.0 0.00 0.00 0.00 85 1018.2
20260906131451 69 305 0.0 0.0 0.00 0.00 0.00 86 1018.2
20260906130946 69 308 0.0 0.0 0.00 0.00 0.00 86 1018.1
20260906130445 69 308 0.0 0.0 0.00 0.00 0.00 86 1018.2
20260906125941 68 307 0.0 0.0 0.00 0.00 0.00 87 1018.2
20260906125438 68 308 0.0 0.0 0.00 0.00 0.00 87 1018.3
20260906124938 68 304 0.0 0.0 0.00 0.00 0.00 87 1018.4
20260906124433 68 305 0.0 0.0 0.00 0.00 0.00 87 1018.3
20260906123928 68 306 0.0 0.0 0.00 0.00 0.00 87 1018.3
20260906123427 68 306 0.0 0.0 0.00 0.00 0.00 87 1018.5
20260906122921 68 306 0.0 0.0 0.00 0.00 0.00 87 1018.4
20260906122416 68 306 0.0 0.0 0.00 0.00 0.00 88 1018.4
20260906121914 68 306 0.0 0.0 0.00 0.00 0.00 88 1018.3
20260906121409 68 305 0.0 0.0 0.00 0.00 0.00 88 1018.0
20260906120905 68 305 0.0 0.0 0.00 0.00 0.00 88 1018.0
20260906120401 68 305 0.0 0.0 0.00 0.00 0.00 88 1017.9
20260906115856 68 305 0.0 0.0 0.00 0.00 0.00 88 1018.2
20260906115352 68 305 0.0 0.0 0.00 0.00 0.00 88 1017.8
20260906114851 68 305 0.0 0.0 0.00 0.00 0.00 88 1017.6
20260906114346 68 305 0.0 0.0 0.00 0.00 0.00 88 1017.5
20260906113841 68 305 0.0 0.0 0.00 0.00 0.00 88 1017.4
20260906113340 68 305 0.0 0.0 0.00 0.00 0.00 88 1017.2
20260906112836 68 305 0.0 0.0 0.00 0.00 0.00 88 1017.2
20260906112332 68 304 0.0 0.0 0.00 0.00 0.00 88 1017.1
20260906111832 68 305 0.0 0.0 0.00 0.00 0.00 88 1017.0
20260906111326 68 318 0.0 0.0 0.00 0.00 0.00 88 1017.1
20260906110821 68 319 0.0 0.0 0.00 0.00 0.00 88 1017.1
20260906110317 68 305 0.0 0.0 0.00 0.00 0.00 88 1016.8
20260906105816 68 305 0.0 0.0 0.00 0.00 0.00 88 1017.0
20260906105312 68 306 0.0 0.0 0.00 0.00 0.00 88 1016.9
20260906104807 68 306 0.0 0.0 0.00 0.00 0.00 88 1016.8
20260906104306 68 305 0.0 0.0 0.00 0.00 0.00 88 1016.7
20260906103804 68 305 0.0 0.0 0.00 0.00 0.00 88 1016.5
20260906103304 68 308 0.0 0.0 0.00 0.00 0.00 88 1016.4
20260906102759 68 305 0.0 0.0 0.00 0.00 0.00 88 1016.4
20260906102258 68 305 0.0 0.0 0.00 0.00 0.00 87 1016.2
20260906101753 68 305 0.0 0.0 0.00 0.00 0.00 87 1016.1
20260906101248 69 305 0.0 0.0 0.00 0.00 0.00 87 1016.0
20260906100744 69 305 0.0 0.0 0.00 0.00 0.00 87 1016.2
20260906100243 69 305 0.0 0.0 0.00 0.00 0.00 87 1016.2
20260906095738 69 306 0.0 0.0 0.00 0.00 0.00 87 1016.3
20260906095233 69 306 0.0 0.0 0.00 0.00 0.00 87 1016.3
20260906094732 69 305 0.0 0.0 0.00 0.00 0.00 87 1016.2
20260906094228 69 306 0.0 0.0 0.00 0.00 0.00 87 1016.1
20260906093724 69 306 0.0 0.0 0.00 0.00 0.00 87 1016.3
20260906093214 69 306 0.0 0.0 0.00 0.00 0.00 86 1016.3
20260906092709 69 306 0.0 0.0 0.00 0.00 0.00 86 1016.4
20260906092209 69 306 0.0 0.0 0.00 0.00 0.00 86 1016.2
20260906091705 69 306 0.0 0.0 0.00 0.00 0.00 86 1016.1
20260906091201 69 306 0.0 0.0 0.00 0.00 0.00 86 1016.2
20260906090657 69 306 0.0 0.0 0.00 0.00 0.00 86 1016.1
20260906090156 70 306 0.0 0.0 0.00 0.00 0.00 86 1016.0
20260906085656 70 306 0.0 0.0 0.00 0.00 0.00 85 1016.1
20260906085154 70 306 0.0 0.0 0.00 0.00 0.00 85 1016.3
20260906084649 70 306 0.0 0.0 0.00 0.00 0.00 85 1016.3
20260906084149 70 306 0.0 0.0 0.00 0.00 0.00 85 1016.3
20260906083643 70 306 0.0 0.0 0.00 0.00 0.00 84 1016.0
20260906083138 70 306 0.0 0.0 0.00 0.00 0.00 84 1016.1
20260906082629 70 306 0.0 0.0 0.00 0.00 0.00 84 1016.3
20260906082124 70 306 0.0 0.0 0.00 0.00 0.00 84 1016.1
20260906081620 70 306 0.0 0.0 0.00 0.00 0.00 84 1016.1
20260906081115 70 306 0.0 0.0 0.00 0.00 0.00 84 1016.2
20260906080612 70 312 0.0 0.0 0.00 0.00 0.00 84 1016.2
20260906080108 70 310 0.0 0.0 0.00 0.00 0.00 84 1016.2
20260906075607 71 306 0.0 0.0 0.00 0.00 0.00 83 1016.0
20260906075101 71 320 0.0 0.0 0.00 0.00 0.00 83 1016.0
20260906074556 71 319 0.0 0.0 0.00 0.00 0.00 83 1016.1
20260906074050 71 308 0.0 0.0 0.00 0.00 0.00 83 1016.2
20260906073545 71 319 0.0 0.0 0.00 0.00 0.00 83 1016.2
20260906073040 71 320 0.0 0.0 0.00 0.00 0.00 83 1016.3
20260906072535 71 319 0.0 0.0 0.00 0.00 0.00 83 1016.2
20260906072032 71 305 0.0 0.0 0.00 0.00 0.00 83 1016.2
20260906071527 71 306 0.0 0.0 0.00 0.00 0.00 83 1016.3
20260906071022 72 303 0.0 0.0 0.00 0.00 0.00 83 1016.5
20260906070518 72 302 0.0 0.0 0.00 0.00 0.00 82 1016.5
20260906070009 72 303 0.0 0.0 0.00 0.00 0.00 82 1016.5
20260906065508 72 302 0.0 0.0 0.00 0.00 0.00 82 1016.5
20260906065003 72 301 0.0 0.0 0.00 0.00 0.00 82 1016.7
20260906064459 72 306 0.0 0.0 0.00 0.00 0.00 82 1016.4
20260906063954 72 305 0.0 0.0 0.00 0.00 0.00 82 1016.9
20260906063450 72 323 0.0 0.0 0.00 0.00 0.00 82 1016.5
20260906062950 72 324 0.0 0.0 0.00 0.00 0.00 82 1016.8
20260906062445 73 324 0.0 0.0 0.00 0.00 0.00 82 1016.3
20260906061940 73 324 0.0 0.0 0.00 0.00 0.00 82 1016.7
20260906061436 73 330 0.0 0.0 0.00 0.00 0.00 82 1016.5
20260906060930 73 330 0.0 0.0 0.00 0.00 0.00 82 1016.5
20260906060427 73 330 0.0 0.0 0.00 0.00 0.00 82 1016.4
20260906055923 73 324 0.0 0.0 0.00 0.00 0.00 82 1016.3
20260906055419 73 304 0.0 0.0 0.00 0.00 0.00 82 1016.3
20260906054914 73 303 0.0 0.0 0.00 0.00 0.00 81 1016.4
20260906054409 73 303 0.0 0.0 0.00 0.00 0.00 81 1016.4
20260906053905 74 328 0.0 0.0 0.00 0.00 0.00 81 1016.5
20260906053401 74 329 0.0 0.0 0.00 0.00 0.00 81 1016.5
20260906052856 74 329 0.0 0.0 0.00 0.00 0.00 81 1016.7
20260906052352 74 329 0.0 0.0 0.00 0.00 0.00 81 1016.5
20260906051849 74 328 0.0 0.0 0.00 0.00 0.00 80 1016.7
20260906051349 74 328 0.0 0.0 0.00 0.00 0.00 80 1016.3
20260906050845 74 329 0.0 0.0 0.00 0.00 0.00 80 1016.5
20260906050339 74 329 0.0 0.0 0.00 0.00 0.00 80 1016.2
20260906045838 74 330 0.0 0.0 0.00 0.00 0.00 80 1016.4
20260906045332 74 324 0.0 0.0 0.00 0.00 0.00 80 1016.3
20260906044829 74 320 0.0 0.0 0.00 0.00 0.00 80 1016.1
20260906044329 74 323 0.0 0.0 0.00 0.00 0.00 80 1016.0
20260906043827 75 329 0.0 0.0 0.00 0.00 0.00 80 1015.9
20260906043321 75 328 0.0 0.0 0.00 0.00 0.00 80 1015.9
20260906042821 75 329 0.0 0.0 0.00 0.00 0.00 80 1015.9
20260906042320 75 330 0.0 0.0 0.00 0.00 0.00 79 1015.8
20260906041815 75 331 0.0 0.0 0.00 0.00 0.00 79 1015.8
20260906041311 75 324 0.0 0.0 0.00 0.00 0.00 79 1015.5
20260906040805 75 325 0.0 0.0 0.00 0.00 0.00 80 1015.4
20260906040301 75 324 0.0 0.0 0.00 0.00 0.00 80 1015.4
20260906035756 75 324 0.0 0.0 0.00 0.00 0.00 80 1015.2
20260906035252 75 323 0.0 0.0 0.00 0.00 0.00 80 1015.5
20260906034752 75 323 0.0 0.0 0.00 0.00 0.00 80 1015.2
20260906034252 75 323 0.0 0.0 0.00 0.00 0.00 79 1015.0
20260906033748 75 323 0.0 0.0 0.00 0.00 0.00 79 1015.4
20260906033247 75 323 0.0 0.0 0.00 0.00 0.00 79 1015.2
20260906032743 75 323 0.0 0.0 0.00 0.00 0.00 80 1015.3
20260906032243 75 323 0.0 0.0 0.00 0.00 0.00 80 1015.2
20260906031739 75 323 0.0 0.0 0.00 0.00 0.00 80 1014.8
20260906031234 75 323 0.0 0.0 0.00 0.00 0.00 80 1014.8
20260906030729 75 323 0.0 0.0 0.00 0.00 0.00 80 1014.9
20260906030224 75 323 0.0 0.0 0.00 0.00 0.00 80 1014.7
20260906025723 75 323 0.0 0.0 0.00 0.00 0.00 80 1014.8
20260906025218 75 323 0.0 0.0 0.00 0.00 0.00 80 1014.7
20260906024717 75 323 0.0 0.0 0.00 0.00 0.00 80 1014.7
20260906024216 75 323 0.0 0.0 0.00 0.00 0.00 80 1014.8
20260906023712 75 323 0.0 0.0 0.00 0.00 0.00 79 1014.6
20260906023207 75 324 0.0 0.0 0.00 0.00 0.00 79 1014.5
20260906022703 75 324 0.0 0.0 0.00 0.00 0.00 79 1014.8
20260906022158 75 324 0.0 0.0 0.00 0.00 0.00 79 1014.7
20260906021654 75 324 0.0 0.0 0.00 0.00 0.00 79 1014.7
20260906021152 75 324 0.0 0.0 0.00 0.00 0.00 79 1014.5
20260906020647 75 324 0.0 0.0 0.00 0.00 0.00 78 1014.5
20260906020142 76 324 0.0 0.0 0.00 0.00 0.00 78 1014.4
20260906015636 76 324 0.0 0.0 0.00 0.00 0.00 78 1014.3
20260906015134 76 324 0.0 0.0 0.00 0.00 0.00 78 1014.3
20260906014629 76 324 0.0 0.0 0.00 0.00 0.00 78 1014.2
20260906014126 76 324 0.0 0.0 0.00 0.00 0.00 77 1014.1
20260906013620 77 324 0.0 0.0 0.00 0.00 0.00 77 1014.1
20260906013116 77 324 0.0 0.0 0.00 0.00 0.00 76 1014.0
20260906012610 77 324 0.0 0.0 0.00 0.00 0.00 76 1014.2
20260906012105 77 324 0.0 0.0 0.00 0.00 0.00 76 1014.0
20260906011601 77 322 0.0 0.0 0.00 0.00 0.00 75 1014.3
20260906011055 77 324 0.0 0.0 0.00 0.00 0.00 75 1014.3
20260906010551 78 322 0.0 0.0 0.00 0.00 0.00 75 1014.1
20260906010047 78 323 0.0 0.0 0.00 0.00 0.00 75 1014.2
20260906005546 78 327 0.0 0.0 0.00 0.00 0.00 75 1014.2
20260906005045 78 306 0.0 0.0 0.00 0.00 0.00 75 1014.2
20260906004544 78 302 0.0 0.0 0.00 0.00 0.00 75 1014.2
20260906004040 79 322 0.0 0.0 0.00 0.00 0.00 75 1014.1
20260906003535 79 330 0.0 0.0 0.00 0.00 0.00 74 1014.2
20260906003031 79 330 0.0 0.0 0.00 0.00 0.00 74 1014.2
20260906002531 80 331 0.0 0.0 0.00 0.00 0.00 74 1014.2
20260906002025 80 302 0.0 0.0 0.00 0.00 0.00 73 1014.2
20260906001521 80 332 0.0 0.0 0.00 0.00 0.00 73 1014.2
20260906001016 81 301 0.0 0.0 0.00 0.00 0.00 73 1014.0
20260906000512 81 299 0.0 0.0 0.00 0.00 0.00 73 1014.2
20260906000012 81 323 0.0 0.0 0.00 0.00 0.00 73 1013.8
20260905235506 82 304 0.0 0.0 0.00 0.00 0.00 73 1013.6
20260905235000 82 335 0.0 0.0 0.00 0.00 0.00 72 1013.7
20260905234456 82 315 0.0 0.0 0.00 0.00 0.00 72 1013.8
20260905233950 83 303 0.0 0.0 0.00 0.00 0.00 71 1013.8
20260905233447 83 308 0.0 0.0 0.00 0.00 0.00 71 1013.9
20260905232945 83 304 0.0 0.0 0.00 0.00 0.00 71 1013.7
20260905232442 83 329 0.0 0.0 0.00 0.00 0.00 71 1013.9
20260905231936 84 329 0.0 0.0 0.00 0.00 0.00 71 1013.8
20260905231432 84 318 0.0 0.0 0.00 0.00 0.00 70 1013.8
20260905230923 85 329 0.0 0.0 0.00 0.00 0.00 71 1013.7
20260905230420 86 332 0.0 0.0 0.00 0.00 0.00 70 1013.6
20260905225919 87 329 0.0 0.0 0.00 0.00 0.00 69 1013.6
20260905225414 87 331 0.0 0.0 0.00 0.00 0.00 68 1013.6
20260905224909 87 323 0.0 0.0 0.00 0.00 0.00 68 1013.6
20260905224405 87 324 0.0 0.0 0.00 0.00 0.00 68 1013.8
20260905223900 87 323 0.0 0.0 0.00 0.00 0.00 68 1013.3
20260905223357 87 323 0.0 0.0 0.00 0.00 0.00 68 1013.2
20260905222852 87 332 0.0 0.0 0.00 0.00 0.00 67 1013.2
20260905222351 87 322 0.0 0.0 0.00 0.00 0.00 68 1013.3
20260905221847 87 324 0.0 0.0 0.00 0.00 0.00 67 1013.1
20260905221343 87 324 0.0 0.0 0.00 0.00 0.00 67 1013.3
20260905220838 87 323 0.0 0.0 0.00 0.00 0.00 68 1013.2
20260905220335 88 323 0.0 0.0 0.00 0.00 0.00 68 1013.4
20260905215834 87 322 0.0 0.0 0.00 0.00 0.00 69 1013.4
20260905215329 88 324 0.0 0.0 0.00 0.00 0.00 68 1013.3
20260905214826 88 322 0.0 0.0 0.00 0.00 0.00 68 1013.2
20260905214321 88 324 0.0 0.0 0.00 0.00 0.00 67 1013.2
20260905213816 88 315 0.0 0.0 0.00 0.00 0.00 67 1013.0
20260905213313 89 320 0.0 0.0 0.00 0.00 0.00 66 1013.0
20260905212813 89 324 0.0 0.0 0.00 0.00 0.00 67 1013.0
20260905212313 89 321 0.0 0.0 0.00 0.00 0.00 67 1012.9
20260905211807 89 324 0.0 0.0 0.00 0.00 0.00 68 1012.8
20260905211302 89 324 0.0 0.0 0.00 0.00 0.00 67 1013.0
20260905210759 90 320 0.0 0.0 0.00 0.00 0.00 67 1013.0
20260905210258 91 332 0.0 0.0 0.00 0.00 0.00 66 1013.1
20260905205757 91 331 0.0 0.0 0.00 0.00 0.00 66 1013.0
20260905205252 91 325 0.0 0.0 0.00 0.00 0.00 64 1013.0
20260905204751 92 324 0.0 0.0 0.00 0.00 0.00 64 1013.2
20260905204248 91 321 0.0 0.0 0.00 0.00 0.00 65 1013.1
20260905203747 92 323 0.0 0.0 0.00 0.00 0.00 63 1013.3
20260905203242 91 323 0.0 0.0 0.00 0.00 0.00 64 1013.2
20260905202738 93 318 0.0 0.0 0.00 0.00 0.00 63 1013.5
20260905202238 92 327 0.0 0.0 0.00 0.00 0.00 63 1013.2
20260905201733 92 325 0.0 0.0 0.00 0.00 0.00 63 1013.3
20260905201228 92 328 0.0 0.0 0.00 0.00 0.00 63 1013.1
20260905200723 92 329 0.0 0.0 0.00 0.00 0.00 63 1013.1
20260905200219 91 323 0.0 0.0 0.00 0.00 0.00 64 1013.1
20260905195717 91 325 0.0 0.0 0.00 0.00 0.00 64 1013.1
20260905195213 93 329 0.0 0.0 0.00 0.00 0.00 63 1013.2
20260905194708 92 315 0.0 0.0 0.00 0.00 0.00 63 1013.2
20260905194207 91 306 0.0 0.0 0.00 0.00 0.00 64 1013.3
20260905193701 92 324 0.0 0.0 0.00 0.00 0.00 64 1013.4
20260905193156 91 324 0.0 0.0 0.00 0.00 0.00 64 1013.4
20260905192652 93 326 0.0 0.0 0.00 0.00 0.00 63 1013.7
20260905192149 92 323 0.0 0.0 0.00 0.00 0.00 63 1013.2
20260905191648 91 324 0.0 0.0 0.00 0.00 0.00 63 1013.5
20260905191146 92 324 0.0 0.0 0.00 0.00 0.00 63 1013.4
20260905190644 93 324 0.0 0.0 0.00 0.00 0.00 62 1013.4
20260905190144 93 318 0.0 0.0 0.00 0.00 0.00 62 1013.4
20260905185637 92 313 0.0 0.0 0.00 0.00 0.00 63 1013.6
20260905185132 92 323 0.0 0.0 0.00 0.00 0.00 63 1013.7
20260905184632 91 324 0.0 0.0 0.00 0.00 0.00 64 1013.5
20260905184131 91 324 0.0 0.0 0.00 0.00 0.00 64 1013.6
20260905183631 93 324 0.0 0.0 0.00 0.00 0.00 62 1013.4
20260905183126 93 324 0.0 0.0 0.00 0.00 0.00 63 1013.6
20260905182625 92 323 0.0 0.0 0.00 0.00 0.00 63 1013.6
20260905182125 91 324 0.0 0.0 0.00 0.00 0.00 63 1013.8
20260905181620 91 324 0.0 0.0 0.00 0.00 0.00 64 1013.8
20260905181119 91 324 0.0 0.0 0.00 0.00 0.00 63 1013.8
20260905180614 91 318 0.0 0.0 0.00 0.00 0.00 64 1013.6
20260905180110 91 324 0.0 0.0 0.00 0.00 0.00 64 1013.7
20260905175609 92 324 0.0 0.0 0.00 0.00 0.00 62 1013.8
20260905175104 92 323 0.0 0.0 0.00 0.00 0.00 62 1013.8
20260905174600 92 323 0.0 0.0 0.00 0.00 0.00 63 1014.0
20260905174055 91 324 0.0 0.0 0.00 0.00 0.00 62 1013.9
20260905173552 91 324 0.0 0.0 0.00 0.00 0.00 62 1014.1
20260905173047 91 324 0.0 0.0 0.00 0.00 0.00 63 1013.9
20260905172545 91 324 0.0 0.0 0.00 0.00 0.00 62 1014.0
20260905172040 91 324 0.0 0.0 0.00 0.00 0.00 63 1014.1
20260905171537 91 324 0.0 0.0 0.00 0.00 0.00 62 1014.1
20260905171033 92 324 0.0 0.0 0.00 0.00 0.00 61 1014.1
20260905170529 91 324 0.0 0.0 0.00 0.00 0.00 63 1014.0
20260905170024 91 316 0.0 0.0 0.00 0.00 0.00 62 1014.2
20260905165519 90 324 0.0 0.0 0.00 0.00 0.00 63 1014.2
20260905165014 90 323 0.0 0.0 0.00 0.00 0.00 63 1014.2
20260905164514 89 317 0.0 0.0 0.00 0.00 0.00 64 1014.3
20260905164008 90 323 0.0 0.0 0.00 0.00 0.00 64 1014.3
20260905163504 89 324 0.0 0.0 0.00 0.00 0.00 63 1014.2
20260905163000 90 323 0.0 0.0 0.00 0.00 0.00 64 1014.3
20260905162456 89 317 0.0 0.0 0.00 0.00 0.00 64 1014.3
20260905161950 89 314 0.0 0.0 0.00 0.00 0.00 65 1014.2
20260905161449 88 324 0.0 0.0 0.00 0.00 0.00 65 1014.1
20260905160948 88 322 0.0 0.0 0.00 0.00 0.00 66 1014.1
20260905160442 89 320 0.0 0.0 0.00 0.00 0.00 65 1014.2
20260905155936 88 305 0.0 0.0 0.00 0.00 0.00 64 1014.2
20260905155431 88 324 0.0 0.0 0.00 0.00 0.00 65 1014.1
20260905154929 88 322 0.0 0.0 0.00 0.00 0.00 65 1014.2
20260905154425 88 323 0.0 0.0 0.00 0.00 0.00 65 1014.2
20260905153921 88 316 0.0 0.0 0.00 0.00 0.00 67 1014.1
20260905153417 88 317 0.0 0.0 0.00 0.00 0.00 67 1014.3
20260905152916 87 326 0.0 0.0 0.00 0.00 0.00 67 1014.1
20260905152416 87 319 0.0 0.0 0.00 0.00 0.00 68 1014.2
20260905151911 87 319 0.0 0.0 0.00 0.00 0.00 68 1014.1
20260905151407 87 321 0.0 0.0 0.00 0.00 0.00 66 1014.2
20260905150906 88 323 0.0 0.0 0.00 0.00 0.00 66 1013.9